• In Portugal
  • List of Countries
  • For 7 days
  • Water Temperature
  • Satellite Maps
  • Weather Map
  • Weather Widgets
  • user-avatar
    Login

    Hourly Weather Pegu

    Today, 19 February, Monday

    Time Temperature Precipitation Wind Pressure Humidity
    00:00 +25°C° 0 mm 1 mps 751 mmHg 28%
    01:00 +24°C° 0 mm 1 mps 751 mmHg 30%
    02:00 +24°C° 0 mm 1 mps 751 mmHg 31%
    03:00 +23°C° 0 mm 1 mps 750 mmHg 32%
    04:00 +22°C° 0 mm 1 mps 751 mmHg 33%
    05:00 +22°C° 0 mm 1 mps 751 mmHg 34%
    06:00 +20°C° 0 mm 2 mps 752 mmHg 34%
    07:00 +23°C° 0 mm 2 mps 752 mmHg 31%
    08:00 +25°C° 0 mm 2 mps 752 mmHg 29%
    09:00 +27°C° 0 mm 2 mps 753 mmHg 27%
    10:00 +29°C° 0 mm 2 mps 752 mmHg 24%
    11:00 +31°C° 0 mm 2 mps 752 mmHg 21%
    12:00 +34°C° 0 mm 2 mps 752 mmHg 18%
    13:00 +34°C° 0 mm 2 mps 751 mmHg 17%
    14:00 +35°C° 0 mm 2 mps 750 mmHg 16%
    15:00 +35°C° 0 mm 2 mps 749 mmHg 15%
    16:00 +34°C° 0 mm 2 mps 750 mmHg 16%
    17:00 +31°C° 0 mm 1 mps 750 mmHg 18%
    18:00 +30°C° 0 mm 1 mps 750 mmHg 19%
    19:00 +29°C° 0 mm 1 mps 750 mmHg 20%
    20:00 +28°C° 0 mm 1 mps 751 mmHg 21%
    21:00 +25°C° 0 mm 0 mps 751 mmHg 22%
    22:00 +27°C° 0 mm 1 mps 751 mmHg 23%
    23:00 +26°C° 0 mm 1 mps 751 mmHg 23%

    Tomorrow, 20 February, Tuesday

    Time Temperature Precipitation Wind Pressure Humidity
    00:00 +25°C° 0 mm 1 mps 751 mmHg 24%
    01:00 +25°C° 0 mm 1 mps 751 mmHg 25%
    02:00 +24°C° 0 mm 1 mps 751 mmHg 26%
    03:00 +24°C° 0 mm 1 mps 751 mmHg 26%
    04:00 +23°C° 0 mm 1 mps 751 mmHg 28%
    05:00 +23°C° 0 mm 1 mps 751 mmHg 29%
    06:00 +21°C° 0 mm 2 mps 752 mmHg 30%
    07:00 +24°C° 0 mm 2 mps 752 mmHg 28%
    08:00 +26°C° 0 mm 2 mps 752 mmHg 26%
    09:00 +28°C° 0 mm 2 mps 753 mmHg 24%
    10:00 +30°C° 0 mm 2 mps 752 mmHg 22%
    11:00 +31°C° 0 mm 2 mps 752 mmHg 20%
    12:00 +34°C° 0 mm 2 mps 751 mmHg 18%
    13:00 +34°C° 0 mm 1 mps 750 mmHg 17%
    14:00 +34°C° 0 mm 1 mps 749 mmHg 16%
    15:00 +35°C° 0 mm 1 mps 748 mmHg 15%
    16:00 +33°C° 0 mm 1 mps 748 mmHg 16%
    17:00 +32°C° 0 mm 1 mps 749 mmHg 18%
    18:00 +30°C° 0 mm 1 mps 749 mmHg 19%
    19:00 +29°C° 0 mm 1 mps 749 mmHg 20%
    20:00 +29°C° 0 mm 1 mps 750 mmHg 21%
    21:00 +28°C° 0 mm 1 mps 750 mmHg 22%
    22:00 +27°C° 0 mm 1 mps 750 mmHg 22%
    23:00 +27°C° 0 mm 1 mps 750 mmHg 23%

    Day after tomorrow, 21 February, Wednesday

    Time Temperature Precipitation Wind Pressure Humidity
    00:00 +26°C° 0 mm 1 mps 750 mmHg 24%
    01:00 +25°C° 0 mm 1 mps 749 mmHg 25%
    02:00 +25°C° 0 mm 1 mps 749 mmHg 26%
    03:00 +24°C° 0 mm 1 mps 749 mmHg 27%
    04:00 +23°C° 0 mm 1 mps 749 mmHg 29%
    05:00 +23°C° 0 mm 1 mps 749 mmHg 30%
    06:00 +22°C° 0 mm 1 mps 750 mmHg 32%
    07:00 +24°C° 0 mm 1 mps 750 mmHg 30%
    08:00 +26°C° 0 mm 1 mps 751 mmHg 28%
    09:00 +28°C° 0 mm 2 mps 752 mmHg 26%
    10:00 +30°C° 0 mm 1 mps 751 mmHg 23%
    11:00 +32°C° 0 mm 1 mps 750 mmHg 21%
    12:00 +34°C° 0 mm 1 mps 750 mmHg 18%
    13:00 +34°C° 0 mm 1 mps 749 mmHg 16%
    14:00 +35°C° 0 mm 1 mps 748 mmHg 15%
    15:00 +36°C° 0 mm 2 mps 747 mmHg 13%
    16:00 +34°C° 0 mm 1 mps 747 mmHg 14%
    17:00 +32°C° 0 mm 1 mps 747 mmHg 15%
    18:00 +31°C° 0 mm 1 mps 748 mmHg 16%
    19:00 +30°C° 0 mm 1 mps 748 mmHg 17%
    20:00 +29°C° 0 mm 1 mps 749 mmHg 17%
    21:00 +28°C° 0 mm 1 mps 749 mmHg 18%
    22:00 +28°C° 0 mm 1 mps 749 mmHg 19%
    23:00 +27°C° 0 mm 1 mps 749 mmHg 19%

    22 February, Thursday

    Time Temperature Precipitation Wind Pressure Humidity
    00:00 +26°C° 0 mm 1 mps 749 mmHg 20%
    01:00 +25°C° 0 mm 1 mps 749 mmHg 21%
    02:00 +25°C° 0 mm 2 mps 749 mmHg 23%
    03:00 +24°C° 0 mm 2 mps 749 mmHg 24%
    04:00 +23°C° 0 mm 2 mps 749 mmHg 27%
    05:00 +23°C° 0 mm 2 mps 750 mmHg 29%
    06:00 +21°C° 0 mm 2 mps 750 mmHg 31%
    07:00 +24°C° 0 mm 2 mps 751 mmHg 29%
    08:00 +27°C° 0 mm 2 mps 751 mmHg 28%
    09:00 +29°C° 0 mm 2 mps 752 mmHg 26%
    10:00 +30°C° 0 mm 2 mps 751 mmHg 23%
    11:00 +32°C° 0 mm 2 mps 751 mmHg 21%
    12:00 +35°C° 0 mm 2 mps 750 mmHg 18%
    13:00 +35°C° 0 mm 2 mps 749 mmHg 17%
    14:00 +36°C° 0 mm 2 mps 748 mmHg 16%
    15:00 +35°C° 0 mm 1 mps 747 mmHg 15%
    16:00 +34°C° 0 mm 1 mps 748 mmHg 16%
    17:00 +32°C° 0 mm 1 mps 748 mmHg 18%
    18:00 +31°C° 0 mm 1 mps 748 mmHg 19%
    19:00 +30°C° 0 mm 1 mps 749 mmHg 20%
    20:00 +29°C° 0 mm 1 mps 750 mmHg 21%
    21:00 +28°C° 0 mm 1 mps 750 mmHg 22%
    22:00 +28°C° 0 mm 1 mps 750 mmHg 22%
    23:00 +27°C° 0 mm 1 mps 750 mmHg 22%

    23 February, Friday

    Time Temperature Precipitation Wind Pressure Humidity
    00:00 +27°C° 0 mm 1 mps 750 mmHg 23%
    01:00 +26°C° 0 mm 1 mps 750 mmHg 23%
    02:00 +25°C° 0 mm 1 mps 750 mmHg 24%
    03:00 +25°C° 0 mm 1 mps 750 mmHg 25%
    04:00 +24°C° 0 mm 1 mps 750 mmHg 26%
    05:00 +24°C° 0 mm 1 mps 750 mmHg 26%
    06:00 +23°C° 0 mm 1 mps 751 mmHg 27%
    07:00 +25°C° 0 mm 1 mps 751 mmHg 25%
    08:00 +27°C° 0 mm 1 mps 752 mmHg 23%
    09:00 +29°C° 0 mm 1 mps 753 mmHg 21%
    10:00 +31°C° 0 mm 1 mps 752 mmHg 20%
    11:00 +33°C° 0 mm 1 mps 751 mmHg 18%
    12:00 +35°C° 0 mm 1 mps 751 mmHg 16%
    13:00 +35°C° 0 mm 1 mps 750 mmHg 15%
    14:00 +35°C° 0 mm 1 mps 749 mmHg 15%
    15:00 +36°C° 0 mm 1 mps 748 mmHg 14%
    16:00 +34°C° 0 mm 1 mps 749 mmHg 15%
    17:00 +33°C° 0 mm 1 mps 749 mmHg 16%
    18:00 +32°C° 0 mm 1 mps 749 mmHg 17%
    19:00 +31°C° 0 mm 1 mps 750 mmHg 18%
    20:00 +30°C° 0 mm 1 mps 750 mmHg 18%
    21:00 +29°C° 0 mm 1 mps 751 mmHg 19%
    22:00 +29°C° 0 mm 1 mps 751 mmHg 19%
    23:00 +28°C° 0 mm 1 mps 751 mmHg 20%

    24 February, Saturday

    Time Temperature Precipitation Wind Pressure Humidity
    00:00 +27°C° 0 mm 1 mps 751 mmHg 20%
    01:00 +27°C° 0 mm 1 mps 751 mmHg 21%
    02:00 +26°C° 0 mm 1 mps 751 mmHg 22%
    03:00 +25°C° 0 mm 1 mps 751 mmHg 23%
    04:00 +25°C° 0 mm 2 mps 751 mmHg 25%
    05:00 +24°C° 0 mm 2 mps 752 mmHg 28%
    06:00 +23°C° 0 mm 2 mps 752 mmHg 30%
    07:00 +25°C° 0 mm 2 mps 753 mmHg 28%
    08:00 +27°C° 0 mm 2 mps 754 mmHg 26%
    09:00 +29°C° 0 mm 2 mps 754 mmHg 24%
    10:00 +31°C° 0 mm 2 mps 753 mmHg 22%
    11:00 +34°C° 0 mm 2 mps 753 mmHg 20%
    12:00 +36°C° 0 mm 2 mps 752 mmHg 17%
    13:00 +35°C° 0 mm 1 mps 751 mmHg 16%
    14:00 +36°C° 0 mm 1 mps 751 mmHg 16%
    15:00 +36°C° 0 mm 1 mps 750 mmHg 15%
    16:00 +35°C° 0 mm 1 mps 750 mmHg 16%
    17:00 +33°C° 0 mm 1 mps 750 mmHg 18%
    18:00 +32°C° 0 mm 1 mps 751 mmHg 19%
    19:00 +31°C° 0 mm 1 mps 751 mmHg 20%
    20:00 +30°C° 0 mm 1 mps 752 mmHg 21%
    21:00 +29°C° 0 mm 1 mps 752 mmHg 22%
    22:00 +29°C° 0 mm 1 mps 752 mmHg 23%
    23:00 +28°C° 0 mm 1 mps 752 mmHg 23%
    Show more